Home > Weather > Horsens > Past weeks

Flag for Denmark Past Weather in Horsens, Denmark — Yesterday and Last 2 Weeks

Now
70 °F

Overcast.


Feels Like: 70 °F
Forecast: 54 / 64 °F
Wind: 10 mph from West

Location: Billund Lufthavn

Current Time: Aug 28, 2016 at 6:50:52 PM

Latest Report: Aug 28, 2016 at 6:20 PM


Visibility: N/A

Pressure: 29.80 "Hg

Humidity: 78%

Dew Point: 63 °F

Location of HorsensLocation

Past Weather in Horsens — Graph

°F

Horsens Temperature Yesterday

Maximum temperature yesterday: 72 °F (at 3:20 PM)
Minimum temperature yesterday: 45 °F (at 5:50 AM)
Average temperature yesterday: 61 °F

High & Low Weather Summary for the Past Weeks

 TemperatureHumidityPressure
High84 °F (Aug 25, 1:50 PM)100% (Aug 14, 4:50 AM)30.30 "Hg (Aug 14, 4:50 AM)
Low41 °F (Aug 17, 5:20 AM)43% (Aug 17, 12:20 PM)29.77 "Hg (Aug 20, 7:50 AM)
Average62 °F81%30.05 "Hg
* Reported Aug 13 5:20 PM — Aug 28 5:50 PM, Horsens, Weather by CustomWeather, © 2016

Note: Actual official high and low records may vary slightly from our data, if they occured in-between our weather recording intervals... More about our weather records

Advertising

Horsens Weather History for the Previous 24 Hours

Scroll right to see more
 ConditionsComfort  
Time TempWeatherWind HumidityBarometerVisibility
5:50 PM
Sun, Aug 28
72 °FPartly sunny.13 mph73%29.80 "HgN/A
5:20 PM73 °FMild.15 mph69%29.80 "HgN/A
4:50 PM73 °FMild.10 mph69%29.80 "HgN/A
4:20 PM73 °FPartly sunny.10 mph74%29.83 "HgN/A
3:50 PM72 °FPassing clouds.8 mph78%29.80 "HgN/A
3:20 PM68 °FPartly sunny.8 mph88%29.80 "HgN/A
2:50 PM66 °FBroken clouds.9 mph94%29.83 "HgN/A
2:20 PM66 °FBroken clouds.9 mph94%29.83 "HgN/A
1:50 PM64 °FBroken clouds.9 mph94%29.86 "HgN/A
1:20 PM64 °FSprinkles. Broken clouds.9 mph94%29.86 "HgN/A
12:50 PM64 °FSprinkles. Broken clouds.6 mph94%29.89 "Hg5 mi
12:20 PM64 °FThunderstorms. Broken clouds.9 mph94%29.92 "HgN/A
12:02 PM64 °FThunderstorms. Broken clouds.10 mph88%29.92 "HgN/A
11:20 AM64 °FOvercast.10 mph88%29.89 "HgN/A
10:50 AM64 °FPartly sunny.13 mph83%29.89 "HgN/A
10:20 AM63 °FPartly sunny.14 mph88%29.89 "HgN/A
9:50 AM61 °FBroken clouds.12 mph94%29.89 "HgN/A
9:20 AM61 °FBroken clouds.10 mph88%29.89 "HgN/A
8:50 AM61 °FPartly sunny.10 mph94%29.89 "HgN/A
8:20 AM59 °FBroken clouds.10 mph94%29.89 "HgN/A
7:50 AM59 °FSprinkles. Broken clouds.13 mph94%29.89 "Hg5 mi
7:20 AM59 °FPassing clouds.13 mph94%29.92 "HgN/A
6:50 AM59 °FPartly cloudy.13 mph94%29.92 "HgN/A
6:20 AM59 °FPassing clouds.14 mph94%29.92 "HgN/A
5:50 AM57 °FThunderstorms. Passing clouds.13 mph94%29.95 "HgN/A
5:20 AM57 °FPassing clouds.12 mph94%29.95 "HgN/A
4:50 AM57 °FThunderstorms. Passing clouds.12 mph94%29.98 "HgN/A
4:20 AM57 °FThunderstorms. Passing clouds.10 mph94%30.01 "HgN/A
3:50 AM57 °FThunderstorms. Passing clouds.8 mph88%30.07 "Hg5 mi
3:20 AM61 °FThunderstorms. Partly cloudy.5 mph77%30.07 "HgN/A
2:50 AM59 °FPartly cloudy.9 mph77%29.98 "HgN/A
2:20 AM59 °FPassing clouds.9 mph72%30.01 "HgN/A
1:50 AM59 °FPassing clouds.8 mph72%30.01 "HgN/A
1:20 AM55 °FCool.8 mph77%30.04 "HgN/A
12:50 AM52 °FCool.7 mph82%30.07 "HgN/A
12:20 AM55 °FCool.5 mph82%30.07 "HgN/A
11:50 PM
Sat, Aug 27
55 °FCool.6 mph82%30.09 "HgN/A
11:20 PM57 °FCool.5 mph77%30.09 "HgN/A
10:50 PM57 °FCool.3 mph82%30.09 "HgN/A
10:20 PM59 °FCool.No wind77%30.12 "HgN/A
9:50 PM59 °FCool.1 mph77%30.12 "HgN/A
9:20 PM59 °FCool.2 mph77%30.12 "HgN/A
8:50 PM61 °FCool.3 mph72%30.12 "HgN/A
8:20 PM63 °FMild.3 mph68%30.12 "HgN/A
7:50 PM64 °FMild.6 mph64%30.12 "HgN/A
7:20 PM68 °FMild.3 mph60%30.12 "HgN/A
6:50 PM68 °FMild.5 mph56%30.12 "HgN/A
6:20 PM70 °FMild.7 mph57%30.12 "HgN/A
Weather by CustomWeather, © 2016

See weather overviewHow to use our weather pages